Tubul — A8VP8 — position and weather

sailwx.info

Track history (hours):
 
Tides and Currents Weather Stations Pressure Air Temp Water Temp Dewpoint Dewpoint Depression Visibility Wind Speed Wind Dir Waves Ship Positions

Tubul

Last reported at 2014-Aug-02 06:29 UTC. Time now 2014-Aug-02 06:36 UTC.
Position N 29°46' E 122°00'.

Length 300 m; draft 10.7 m.

Type: Ship. MMSI: 636014647.

Date/timePositionNaut miles runAvg speedWind from/ knotsBaromVisibWave heightAir tempDewpointWater temp
2014-Aug-02 06:29N 29°46' E 122°00'5 5.0
2014-Aug-02 05:34N 29°48' E 122°05'9 8.8
2014-Aug-02 04:33N 29°48' E 122°15'1010.0
2014-Aug-02 03:33N 29°44' E 122°25'1313.2
2014-Aug-02 02:33N 29°41' E 122°40'2 1.9
2014-Aug-02 01:33N 29°42' E 122°41'3 3.1
2014-Aug-02 00:33N 29°45' E 122°41'2 1.9
2014-Aug-01 23:33N 29°44' E 122°42'3 2.7
2014-Aug-01 22:33N 29°41' E 122°44'3 2.5
2014-Aug-01 21:34N 29°43' E 122°42'2 2.3
2014-Aug-01 20:33N 29°41' E 122°43'2 2.2
2014-Aug-01 19:33N 29°43' E 122°42'2 1.7
2014-Aug-01 18:33N 29°41' E 122°42'2 2.1
2014-Aug-01 17:33N 29°43' E 122°41'2 1.7
2014-Aug-01 16:33N 29°43' E 122°39'2 1.8
2014-Aug-01 15:34N 29°44' E 122°39'7 7.1
2014-Aug-01 14:33N 29°42' E 122°47'2 2.2
2014-Aug-01 13:33N 29°40' E 122°46'1 1.3
2014-Aug-01 12:32N 29°39' E 122°45'4 3.8
2014-Aug-01 11:32N 29°43' E 122°46'1 1.4
2014-Aug-01 10:33N 29°42' E 122°45'3 3.1
2014-Aug-01 09:33N 29°40' E 122°43'3 3.3
2014-Aug-01 08:33N 29°43' E 122°43'3 2.9
2014-Aug-01 07:33N 29°42' E 122°40'1 1.3
2014-Aug-01 06:33N 29°43' E 122°40'2 1.8
2014-Aug-01 05:33N 29°44' E 122°41'1 0.6
2014-Aug-01 04:33N 29°44' E 122°42'1 0.6
2014-Aug-01 03:33N 29°44' E 122°42'1 0.5
2014-Aug-01 02:33N 29°44' E 122°43'4 4.3
2014-Aug-01 01:33N 29°41' E 122°39'2 2.2
2014-Aug-01 00:33N 29°43' E 122°41'2 1.8
2014-Jul-31 23:33N 29°44' E 122°42'1 0.8
2014-Jul-31 22:33N 29°45' E 122°43'5 4.8
2014-Jul-31 21:33N 29°41' E 122°40'2 2.3
2014-Jul-31 20:33N 29°43' E 122°41'9 8.8
2014-Jul-31 19:33N 29°51' E 122°45'2115.0
2014-Jul-31 18:09N 30°07' E 123°01'1312.1
2014-Jul-31 17:05N 30°19' E 122°58'712.8
2014-Jul-31 16:34N 30°23' E 122°52'1212.4
2014-Jul-31 15:34N 30°29' E 122°40'1312.5
2014-Jul-31 14:34N 30°31' E 122°25'1111.2
2014-Jul-31 13:34N 30°33' E 122°12'8 0.4
2014-Jul-30 18:20N 30°37' E 122°04'0 0.0
2014-Jul-30 11:32N 30°37' E 122°04'0 0.0
2014-Jul-30 10:10N 30°37' E 122°04'1 1.4
2014-Jul-30 09:33N 30°36' E 122°04'1010.2
2014-Jul-30 08:32N 30°33' E 122°16'7 7.2
2014-Jul-30 07:33N 30°32' E 122°24'10 9.8
2014-Jul-30 06:33N 30°30' E 122°35'3 2.3
2014-Jul-30 05:10N 30°27' E 122°36'0 0.0
2014-Jul-30 04:28N 30°27' E 122°36'0 0.0
2014-Jul-30 03:22N 30°27' E 122°36'0 0.1
2014-Jul-30 02:28N 30°27' E 122°36'0 0.1
2014-Jul-30 01:31N 30°27' E 122°36'0 0.2
2014-Jul-30 00:28N 30°27' E 122°36'0 0.1
2014-Jul-29 23:28N 30°27' E 122°37'0 0.1
2014-Jul-29 22:28N 30°27' E 122°37'0 0.0
2014-Jul-29 21:16N 30°27' E 122°37'0 0.0
2014-Jul-29 20:22N 30°27' E 122°37'0 0.0
2014-Jul-29 19:22N 30°27' E 122°37'0 0.1
2014-Jul-29 18:22N 30°27' E 122°37'0 0.2
2014-Jul-29 17:31N 30°27' E 122°36'0 0.1
2014-Jul-29 16:28N 30°27' E 122°36'0 0.1
2014-Jul-29 15:22N 30°27' E 122°36'0 0.1
2014-Jul-29 14:28N 30°27' E 122°36'0 0.1
2014-Jul-29 13:16N 30°27' E 122°36'0 0.1
2014-Jul-29 12:28N 30°27' E 122°36'0 0.2
2014-Jul-29 11:22N 30°27' E 122°36'0 0.1
2014-Jul-29 10:16N 30°27' E 122°37'0 0.0
2014-Jul-29 09:28N 30°27' E 122°37'0 0.1
2014-Jul-29 08:28N 30°27' E 122°37'0 0.1
2014-Jul-29 07:22N 30°27' E 122°37'0 0.1
2014-Jul-29 06:28N 30°27' E 122°37'0 0.1
2014-Jul-29 05:16N 30°27' E 122°36'0 0.1
2014-Jul-29 04:28N 30°27' E 122°36'0 0.1
2014-Jul-29 03:16N 30°27' E 122°36'0 0.1
2014-Jul-29 02:16N 30°27' E 122°36'0 0.1
2014-Jul-29 01:28N 30°27' E 122°36'0 0.1
2014-Jul-29 00:28N 30°27' E 122°36'0 0.2
2014-Jul-28 23:28N 30°27' E 122°36'0 0.1
2014-Jul-28 22:28N 30°27' E 122°37'0 0.0
2014-Jul-28 21:16N 30°27' E 122°37'0 0.0
2014-Jul-28 20:28N 30°27' E 122°37'0 0.1
2014-Jul-28 19:28N 30°27' E 122°37'0 0.0
2014-Jul-28 18:22N 30°27' E 122°37'0 0.2
2014-Jul-28 17:22N 30°27' E 122°36'0 0.1
2014-Jul-28 16:28N 30°27' E 122°36'2 2.4
2014-Jul-28 15:33N 30°29' E 122°35'7 7.5
2014-Jul-28 14:33N 30°34' E 122°41'1312.9
2014-Jul-28 13:33N 30°36' E 122°56'1612.8
2014-Jul-28 12:18N 30°40' E 123°14'1112.9
2014-Jul-28 11:28N 30°46' E 123°25'1313.1
2014-Jul-28 10:28N 30°52' E 123°38'  
2014-Jul-24 07:32N 24°41' E 119°24'1818.0
2014-Jul-24 06:33N 24°29' E 119°10'1817.9
2014-Jul-24 05:32N 24°17' E 118°55'3717.6
2014-Jul-24 03:27N 23°52' E 118°25'1717.6
2014-Jul-24 02:31N 23°41' E 118°12'1717.4
2014-Jul-24 01:33N 23°30' E 117°58'1717.0
2014-Jul-24 00:33N 23°20' E 117°44'2617.7
2014-Jul-23 23:04N 23°05' E 117°20'917.2
2014-Jul-23 22:33N 23°01' E 117°11'1817.7
2014-Jul-23 21:33N 22°52' E 116°55'1917.6
2014-Jul-23 20:27N 22°42' E 116°37'14115.5
2014-Jul-23 11:21N 22°18' E 114°06'  
Track history (hours):
 
Tides and Currents Weather Stations Pressure Air Temp Water Temp Dewpoint Dewpoint Depression Visibility Wind Speed Wind Dir Waves Ship Positions

Tubul

Last reported at 2014-Aug-02 06:29 UTC. Time now 2014-Aug-02 06:36 UTC.
Position N 29°46' E 122°00'.

Length 300 m; draft 10.7 m.

Type: Ship. MMSI: 636014647.

Date/timePositionNaut miles runAvg speedWind from/ knotsBaromVisibWave heightAir tempDewpointWater temp
2014-Aug-02 06:29N 29°46' E 122°00'5 5.0
2014-Aug-02 05:34N 29°48' E 122°05'9 8.8
2014-Aug-02 04:33N 29°48' E 122°15'1010.0
2014-Aug-02 03:33N 29°44' E 122°25'1313.2
2014-Aug-02 02:33N 29°41' E 122°40'2 1.9
2014-Aug-02 01:33N 29°42' E 122°41'3 3.1
2014-Aug-02 00:33N 29°45' E 122°41'2 1.9
2014-Aug-01 23:33N 29°44' E 122°42'3 2.7
2014-Aug-01 22:33N 29°41' E 122°44'3 2.5
2014-Aug-01 21:34N 29°43' E 122°42'2 2.3
2014-Aug-01 20:33N 29°41' E 122°43'2 2.2
2014-Aug-01 19:33N 29°43' E 122°42'2 1.7
2014-Aug-01 18:33N 29°41' E 122°42'2 2.1
2014-Aug-01 17:33N 29°43' E 122°41'2 1.7
2014-Aug-01 16:33N 29°43' E 122°39'2 1.8
2014-Aug-01 15:34N 29°44' E 122°39'7 7.1
2014-Aug-01 14:33N 29°42' E 122°47'2 2.2
2014-Aug-01 13:33N 29°40' E 122°46'1 1.3
2014-Aug-01 12:32N 29°39' E 122°45'4 3.8
2014-Aug-01 11:32N 29°43' E 122°46'1 1.4
2014-Aug-01 10:33N 29°42' E 122°45'3 3.1
2014-Aug-01 09:33N 29°40' E 122°43'3 3.3
2014-Aug-01 08:33N 29°43' E 122°43'3 2.9
2014-Aug-01 07:33N 29°42' E 122°40'1 1.3
2014-Aug-01 06:33N 29°43' E 122°40'2 1.8
2014-Aug-01 05:33N 29°44' E 122°41'1 0.6
2014-Aug-01 04:33N 29°44' E 122°42'1 0.6
2014-Aug-01 03:33N 29°44' E 122°42'1 0.5
2014-Aug-01 02:33N 29°44' E 122°43'4 4.3
2014-Aug-01 01:33N 29°41' E 122°39'2 2.2
2014-Aug-01 00:33N 29°43' E 122°41'2 1.8
2014-Jul-31 23:33N 29°44' E 122°42'1 0.8
2014-Jul-31 22:33N 29°45' E 122°43'5 4.8
2014-Jul-31 21:33N 29°41' E 122°40'2 2.3
2014-Jul-31 20:33N 29°43' E 122°41'9 8.8
2014-Jul-31 19:33N 29°51' E 122°45'2115.0
2014-Jul-31 18:09N 30°07' E 123°01'1312.1
2014-Jul-31 17:05N 30°19' E 122°58'712.8
2014-Jul-31 16:34N 30°23' E 122°52'1212.4
2014-Jul-31 15:34N 30°29' E 122°40'1312.5
2014-Jul-31 14:34N 30°31' E 122°25'1111.2
2014-Jul-31 13:34N 30°33' E 122°12'8 0.4
2014-Jul-30 18:20N 30°37' E 122°04'0 0.0
2014-Jul-30 11:32N 30°37' E 122°04'0 0.0
2014-Jul-30 10:10N 30°37' E 122°04'1 1.4
2014-Jul-30 09:33N 30°36' E 122°04'1010.2
2014-Jul-30 08:32N 30°33' E 122°16'7 7.2
2014-Jul-30 07:33N 30°32' E 122°24'10 9.8
2014-Jul-30 06:33N 30°30' E 122°35'3 2.3
2014-Jul-30 05:10N 30°27' E 122°36'0 0.0
2014-Jul-30 04:28N 30°27' E 122°36'0 0.0
2014-Jul-30 03:22N 30°27' E 122°36'0 0.1
2014-Jul-30 02:28N 30°27' E 122°36'0 0.1
2014-Jul-30 01:31N 30°27' E 122°36'0 0.2
2014-Jul-30 00:28N 30°27' E 122°36'0 0.1
2014-Jul-29 23:28N 30°27' E 122°37'0 0.1
2014-Jul-29 22:28N 30°27' E 122°37'0 0.0
2014-Jul-29 21:16N 30°27' E 122°37'0 0.0
2014-Jul-29 20:22N 30°27' E 122°37'0 0.0
2014-Jul-29 19:22N 30°27' E 122°37'0 0.1
2014-Jul-29 18:22N 30°27' E 122°37'0 0.2
2014-Jul-29 17:31N 30°27' E 122°36'0 0.1
2014-Jul-29 16:28N 30°27' E 122°36'0 0.1
2014-Jul-29 15:22N 30°27' E 122°36'0 0.1
2014-Jul-29 14:28N 30°27' E 122°36'0 0.1
2014-Jul-29 13:16N 30°27' E 122°36'0 0.1
2014-Jul-29 12:28N 30°27' E 122°36'0 0.2
2014-Jul-29 11:22N 30°27' E 122°36'0 0.1
2014-Jul-29 10:16N 30°27' E 122°37'0 0.0
2014-Jul-29 09:28N 30°27' E 122°37'0 0.1
2014-Jul-29 08:28N 30°27' E 122°37'0 0.1
2014-Jul-29 07:22N 30°27' E 122°37'0 0.1
2014-Jul-29 06:28N 30°27' E 122°37'0 0.1
2014-Jul-29 05:16N 30°27' E 122°36'0 0.1
2014-Jul-29 04:28N 30°27' E 122°36'0 0.1
2014-Jul-29 03:16N 30°27' E 122°36'0 0.1
2014-Jul-29 02:16N 30°27' E 122°36'0 0.1
2014-Jul-29 01:28N 30°27' E 122°36'0 0.1
2014-Jul-29 00:28N 30°27' E 122°36'0 0.2
2014-Jul-28 23:28N 30°27' E 122°36'0 0.1
2014-Jul-28 22:28N 30°27' E 122°37'0 0.0
2014-Jul-28 21:16N 30°27' E 122°37'0 0.0
2014-Jul-28 20:28N 30°27' E 122°37'0 0.1
2014-Jul-28 19:28N 30°27' E 122°37'0 0.0
2014-Jul-28 18:22N 30°27' E 122°37'0 0.2
2014-Jul-28 17:22N 30°27' E 122°36'0 0.1
2014-Jul-28 16:28N 30°27' E 122°36'2 2.4
2014-Jul-28 15:33N 30°29' E 122°35'7 7.5
2014-Jul-28 14:33N 30°34' E 122°41'1312.9
2014-Jul-28 13:33N 30°36' E 122°56'1612.8
2014-Jul-28 12:18N 30°40' E 123°14'1112.9
2014-Jul-28 11:28N 30°46' E 123°25'1313.1
2014-Jul-28 10:28N 30°52' E 123°38'  
2014-Jul-24 07:32N 24°41' E 119°24'1818.0
2014-Jul-24 06:33N 24°29' E 119°10'1817.9
2014-Jul-24 05:32N 24°17' E 118°55'3717.6
2014-Jul-24 03:27N 23°52' E 118°25'1717.6
2014-Jul-24 02:31N 23°41' E 118°12'1717.4
2014-Jul-24 01:33N 23°30' E 117°58'1717.0
2014-Jul-24 00:33N 23°20' E 117°44'2617.7
2014-Jul-23 23:04N 23°05' E 117°20'917.2
2014-Jul-23 22:33N 23°01' E 117°11'1817.7
2014-Jul-23 21:33N 22°52' E 116°55'1917.6
2014-Jul-23 20:27N 22°42' E 116°37'14115.5
2014-Jul-23 11:21N 22°18' E 114°06'  

Dump ship's entire track history